ELECTRON R/B (49472 NORAD) Tracking and Keplerian Element Data

This shows tracking and keplerian element data for the satellite.

Feedback or suggestion? Click here.




ElementValue
Catalog49472
NameELECTRON R/B
Epoch Orbit201
Epoch Day334.62694303
Epoch Year2021
RAAN296.1087
Inclination42.0173
Eccentricity0.0030676
Argument of Perigee341.854
Mean Anonmoly18.7752
Mean Motion16.37092467
Decay Rate0.09529569
L11 49472U 21106D 21334.62694303 .09529569 89556-5 74648-3 0 9997
L22 49472 42.0173 296.1087 0030676 341.8540 18.7752 16.37092467 2013

Live tracking and technical data element details for ELECTRON R/B (NORAD 49472). ELECTRON R/B can be tracked NOW for your location showing map with azimuth and elevation plus other details from your city location.

Track the satellite on the map from your city or location and see movement details for azimuth, elevation, latitude, longitude, range, height, and movement on the map or in text.







IsCatalogInMostPopularTable: catalog: 49472, numindb: 2
Update: records affected: 1



GetName: 49472 ELECTRON R/B

Hit Count: updated at: Wed, 08 Dec 2021 16:34:18 GMT